Weather History for KAZC - April, 2014

Nearest airport to NA, NA.

See history from more local stations
Change the Weather History Date:

Monday, April 21, 2014

  Actual Average (KCDC) Record (KCDC)
Temperature  
Mean Temperature 62 °F 48 °F  
Max Temperature 83 °F 63 °F 81 °F (1950)
Min Temperature 40 °F 33 °F 18 °F (2008)
Degree Days  
Heating Degree Days 4 17  
Month to date heating degree days 414  
Since 1 July heating degree days 5748  
Cooling Degree Days 0 0  
Month to date cooling degree days 0  
Year to date cooling degree days 0  
Growing Degree Days 12 (Base 50)    
Moisture  
Dew Point 31 °F    
Average Humidity 35    
Maximum Humidity 69    
Minimum Humidity 14    
Precipitation  
Precipitation 0.00 in 0.03 in 0.71 in (2010)
Month to date precipitation 0.79  
Year to date precipitation 4.00  
Sea Level Pressure  
Sea Level Pressure 30.15 in    
Wind  
Wind Speed 4 mph (South)    
Max Wind Speed 16 mph    
Max Gust Speed 23 mph    
Visibility 10 miles    
Events      
T = Trace of Precipitation, MM = Missing Value Source: NWS Daily Summary

Daily Weather History Graph

Daily Weather History Graph

Search for Another Location

Airport or City:

Trip Planner

Search our weather history database for the weather conditions in past years. The results will help you decide how hot, cold, wet, or windy it might be!

Date:

Astronomy

Apr. 21, 2014 Rise Set
Actual Time 5:49 AM MST 7:12 PM MST
Civil Twilight 5:22 AM MST 7:39 PM MST
Nautical Twilight 4:50 AM MST 8:12 PM MST
Astronomical Twilight 4:16 AM MST 8:46 PM MST
Moon 12:43 AM MST (4/21) 11:22 AM MST (4/21)
Length of Visible Light 14h 16m
Length of Day
13h 22m
Waning Gibbous, 56% of the Moon is Illuminated
Apr 21
Waning Gibbous
Apr 22
Last Quarter
Apr 28
New
May 6
First Quarter
May 14
Full

Hourly Weather History & Observations

Time (MST) Temp. Windchill Dew Point Humidity Pressure Visibility Wind Dir Wind Speed Gust Speed Precip Events Conditions
12:15 AM 46.2 °F 43.3 °F 29.7 °F 53% 30.19 in 10.0 mi SSE 5.8 mph - N/A   Clear
12:35 AM 46.6 °F - 29.5 °F 51% 30.19 in 10.0 mi Calm Calm - N/A   Clear
12:55 AM 46.4 °F 44.3 °F 29.7 °F 52% 30.20 in 10.0 mi South 4.6 mph - N/A   Clear
1:15 AM 45.1 °F 42.8 °F 30.0 °F 55% 30.20 in 10.0 mi SSE 4.6 mph - N/A   Clear
1:35 AM 44.6 °F 41.4 °F 30.0 °F 57% 30.20 in 10.0 mi SE 5.8 mph - N/A   Clear
1:55 AM 43.9 °F 40.5 °F 30.0 °F 58% 30.21 in 10.0 mi SSE 5.8 mph - N/A   Scattered Clouds
2:15 AM 44.4 °F 41.2 °F 30.6 °F 58% 30.20 in 10.0 mi ESE 5.8 mph - N/A   Scattered Clouds
2:35 AM 43.9 °F 42.3 °F 30.9 °F 60% 30.21 in 10.0 mi ESE 3.5 mph - N/A   Clear
2:55 AM 44.8 °F 42.4 °F 31.3 °F 59% 30.20 in 10.0 mi SE 4.6 mph - N/A   Clear
3:15 AM 45.0 °F 41.8 °F 30.9 °F 58% 30.20 in 10.0 mi SSE 5.8 mph - N/A   Clear
3:35 AM 44.6 °F 42.2 °F 30.7 °F 58% 30.20 in 10.0 mi SSE 4.6 mph - N/A   Clear
3:55 AM 43.7 °F 41.1 °F 30.9 °F 61% 30.20 in 10.0 mi SSE 4.6 mph - N/A   Clear
4:15 AM 42.8 °F 39.3 °F 30.6 °F 62% 30.21 in 10.0 mi SE 5.8 mph - N/A   Clear
4:35 AM 42.1 °F 37.7 °F 31.1 °F 65% 30.21 in 10.0 mi ESE 6.9 mph - N/A   Clear
4:55 AM 42.3 °F 38.6 °F 31.6 °F 66% 30.21 in 10.0 mi ESE 5.8 mph - N/A   Clear
5:15 AM 43.7 °F 41.1 °F 32.0 °F 63% 30.21 in 10.0 mi SE 4.6 mph - N/A   Clear
5:35 AM 43.7 °F 41.1 °F 31.8 °F 63% 30.21 in 10.0 mi ESE 4.6 mph - N/A   Clear
5:55 AM 42.1 °F 39.2 °F 31.6 °F 67% 30.22 in 10.0 mi SSE 4.6 mph - N/A   Clear
6:15 AM 40.8 °F 37.8 °F 31.3 °F 69% 30.22 in 10.0 mi SSE 4.6 mph - N/A   Clear
6:35 AM 41.2 °F 38.2 °F 31.6 °F 69% 30.23 in 10.0 mi SE 4.6 mph - N/A   Clear
6:55 AM 47.3 °F - 32.7 °F 57% 30.23 in 10.0 mi SE 3.5 mph - N/A   Clear
7:15 AM 52.2 °F - 33.3 °F 49% 30.23 in 10.0 mi ESE 3.5 mph - N/A   Clear
7:35 AM 55.4 °F - 34.3 °F 45% 30.24 in 10.0 mi Calm Calm - N/A   Clear
7:55 AM 58.5 °F - 34.9 °F 41% 30.24 in 10.0 mi Calm Calm - N/A   Scattered Clouds
8:15 AM 61.7 °F - 34.7 °F 36% 30.24 in 10.0 mi Calm Calm - N/A   Scattered Clouds
8:35 AM 63.7 °F - 34.5 °F 34% 30.24 in 10.0 mi Calm Calm - N/A   Scattered Clouds
8:55 AM 68.0 °F - 35.4 °F 30% 30.24 in 10.0 mi Calm Calm - N/A   Mostly Cloudy
9:15 AM 71.8 °F - 34.0 °F 25% 30.24 in 10.0 mi SSE 5.8 mph - N/A   Scattered Clouds
9:35 AM 72.7 °F - 32.5 °F 23% 30.24 in 10.0 mi SE 3.5 mph - N/A   Scattered Clouds
9:55 AM 73.8 °F - 32.5 °F 22% 30.23 in 10.0 mi South 5.8 mph - N/A   Scattered Clouds
10:15 AM 74.7 °F - 32.7 °F 22% 30.23 in 10.0 mi ESE 5.8 mph - N/A   Clear
10:35 AM 76.3 °F - 32.7 °F 20% 30.23 in 10.0 mi SE 5.8 mph - N/A   Clear
10:55 AM 76.8 °F - 32.2 °F 20% 30.23 in 10.0 mi Calm Calm - N/A   Scattered Clouds
11:15 AM 76.8 °F - 32.0 °F 19% 30.22 in 10.0 mi Calm Calm - N/A   Scattered Clouds
11:35 AM 78.8 °F - 29.8 °F 17% 30.21 in 10.0 mi SW 3.5 mph - N/A   Scattered Clouds
11:55 AM 79.2 °F - 29.7 °F 16% 30.20 in 10.0 mi SW 3.5 mph 18.4 mph N/A   Scattered Clouds
12:15 PM 79.7 °F - 30.0 °F 16% 30.19 in 10.0 mi South 8.1 mph - N/A   Scattered Clouds
12:35 PM 81.0 °F - 29.8 °F 16% 30.18 in 10.0 mi Calm Calm - N/A   Scattered Clouds
12:55 PM 79.9 °F - 29.7 °F 16% 30.17 in 10.0 mi South 6.9 mph - N/A   Mostly Cloudy
1:20 PM 81.1 °F - 29.7 °F 15% 30.15 in 10.0 mi West 5.8 mph 10.4 mph N/A   Mostly Cloudy
1:35 PM 81.3 °F - 29.5 °F 15% 30.15 in 10.0 mi West 4.6 mph - N/A   Scattered Clouds
1:55 PM 82.4 °F - 29.3 °F 15% 30.13 in 10.0 mi WSW 4.6 mph 17.3 mph N/A   Scattered Clouds
2:15 PM 80.4 °F - 28.2 °F 15% 30.13 in 10.0 mi Calm Calm - N/A   Mostly Cloudy
2:35 PM 81.3 °F - 28.6 °F 15% 30.12 in 10.0 mi SSW 8.1 mph 18.4 mph N/A   Mostly Cloudy
2:55 PM 82.0 °F - 28.6 °F 14% 30.11 in 10.0 mi SSW 10.4 mph 23.0 mph N/A   Mostly Cloudy
3:15 PM 82.6 °F - 28.4 °F 14% 30.10 in 10.0 mi SSW 9.2 mph 21.9 mph N/A   Mostly Cloudy
3:35 PM 83.5 °F - 28.6 °F 14% 30.09 in 10.0 mi WSW 16.1 mph 20.7 mph N/A   Mostly Cloudy
3:55 PM 82.8 °F - 28.8 °F 14% 30.09 in 10.0 mi SW 9.2 mph 18.4 mph N/A   Scattered Clouds
4:15 PM 81.9 °F - 29.1 °F 15% 30.08 in 10.0 mi WNW 8.1 mph 17.3 mph N/A   Mostly Cloudy
4:35 PM 82.6 °F - 29.1 °F 14% 30.08 in 10.0 mi SW 10.4 mph 17.3 mph N/A   Scattered Clouds
4:55 PM 82.0 °F - 29.1 °F 15% 30.07 in 10.0 mi WSW 6.9 mph 17.3 mph N/A   Scattered Clouds
5:15 PM 80.4 °F - 29.7 °F 16% 30.07 in 10.0 mi WSW 8.1 mph - N/A   Scattered Clouds
5:35 PM 78.3 °F - 31.1 °F 18% 30.06 in 10.0 mi Calm Calm - N/A   Clear
5:55 PM 78.3 °F - 31.3 °F 18% 30.06 in 10.0 mi WNW 5.8 mph - N/A   Mostly Cloudy
6:15 PM 78.4 °F - 30.9 °F 18% 30.05 in 10.0 mi NW 6.9 mph - N/A   Scattered Clouds
6:35 PM 76.8 °F - 30.9 °F 19% 30.05 in 10.0 mi Calm Calm - N/A   Clear
6:55 PM 74.8 °F - 31.6 °F 21% 30.04 in 10.0 mi Calm Calm - N/A   Clear
7:20 PM 71.6 °F - 31.8 °F 23% 30.05 in 10.0 mi West 4.6 mph - N/A   Scattered Clouds
7:35 PM 70.3 °F - 31.6 °F 24% 30.05 in 10.0 mi WSW 6.9 mph - N/A   Mostly Cloudy
7:55 PM 71.2 °F - 31.6 °F 23% 30.05 in 10.0 mi WSW 5.8 mph - N/A   Overcast
8:15 PM 71.6 °F - 32.0 °F 23% 30.05 in 10.0 mi WSW 3.5 mph - N/A   Overcast
8:35 PM 69.8 °F - 32.0 °F 25% 30.06 in 10.0 mi WSW 4.6 mph - N/A   Mostly Cloudy
8:55 PM 67.6 °F - 32.0 °F 27% 30.07 in 10.0 mi Calm Calm - N/A   Scattered Clouds
9:15 PM 64.0 °F - 32.2 °F 30% 30.07 in 10.0 mi Calm Calm - N/A   Mostly Cloudy
9:35 PM 64.0 °F - 32.2 °F 30% 30.07 in 10.0 mi Calm Calm - N/A   Scattered Clouds
9:55 PM 60.3 °F - 32.5 °F 35% 30.07 in 10.0 mi Calm Calm - N/A   Clear
10:15 PM 57.9 °F - 34.2 °F 41% 30.07 in 10.0 mi ESE 4.6 mph - N/A   Clear
10:35 PM 57.4 °F - 33.1 °F 40% 30.07 in 10.0 mi ESE 5.8 mph - N/A   Clear
10:55 PM 53.4 °F - 32.9 °F 46% 30.07 in 10.0 mi ESE 5.8 mph - N/A   Clear
11:15 PM 52.0 °F - 33.1 °F 49% 30.07 in 10.0 mi ESE 5.8 mph - N/A   Clear
11:35 PM 51.1 °F - 32.9 °F 50% 30.07 in 10.0 mi Calm Calm - N/A   Clear
11:55 PM 50.5 °F - 32.7 °F 51% 30.07 in 10.0 mi Calm Calm - N/A   Clear